DW9924 Weather Reports


Display with metric or nautical units.
time (UTC)temp
F
wind
direction
speed
MPH
gust
MPH
rain 1hr
in
rain 24hr
in
rain mn
in
humidity
%
barometer
mb
20260906103905 84 213 1.0 3.0 0.00 0.00 0.00 73 1021.0
20260906103406 83 208 1.0 5.0 0.00 0.00 0.00 75 1021.0
20260906101905 83 166 1.0 3.0 0.00 0.00 0.00 77 1021.1
20260906100404 83 214 1.0 3.0 0.00 0.00 0.00 77 1021.2
20260906094904 82 150 1.0 3.0 0.00 0.00 0.00 77 1021.2
20260906094404 82 259 1.0 3.0 0.00 0.00 0.00 77 1021.3
20260906093407 82 235 2.0 3.0 0.00 0.00 0.00 78 1021.3
20260906091907 82 256 1.0 3.0 0.00 0.00 0.00 79 1021.5
20260906091407 81 164 1.0 2.0 0.00 0.00 0.00 78 1021.5
20260906090907 81 172 1.0 3.0 0.00 0.00 0.00 78 1021.5
20260906090407 81 224 2.0 3.0 0.00 0.00 0.00 77 1021.4
20260906084407 81 186 1.0 3.0 0.00 0.00 0.00 80 1021.5
20260906083906 80 149 1.0 3.0 0.00 0.00 0.00 80 1021.5
20260906083407 80 241 2.0 5.0 0.00 0.00 0.00 80 1021.4
20260906081407 80 246 2.0 3.0 0.00 0.00 0.00 80 1021.3
20260906080406 80 204 1.0 2.0 0.00 0.00 0.00 81 1021.1
20260906073907 80 97 0.0 1.0 0.00 0.00 0.00 84 1021.0
20260906073407 80 97 0.0 1.0 0.00 0.00 0.00 86 1021.0
20260906071907 78 97 1.0 2.0 0.00 0.00 0.00 88 1020.8
20260906071407 78 97 0.0 1.0 0.00 0.00 0.00 89 1020.8
20260906070906 78 97 0.0 1.0 0.00 0.00 0.00 90 1020.9
20260906064906 76 30 0.0 0.0 0.00 0.00 0.00 91 1020.9
20260906064407 75 30 0.0 0.0 0.00 0.00 0.00 91 1020.8
20260906061907 74 30 1.0 2.0 0.00 0.00 0.00 90 1020.6
20260906061406 74 30 1.0 2.0 0.00 0.00 0.00 90 1020.5
20260906060907 74 30 1.0 2.0 0.00 0.00 0.00 90 1020.5
20260906060407 74 30 1.0 2.0 0.00 0.00 0.00 91 1020.4
20260906054907 74 35 1.0 2.0 0.00 0.00 0.00 90 1020.2
20260906054407 74 357 1.0 2.0 0.00 0.00 0.00 90 1020.2
20260906053906 74 18 1.0 3.0 0.00 0.00 0.00 90 1020.2
20260906053407 74 4 1.0 2.0 0.00 0.00 0.00 90 1020.1
20260906051406 74 44 1.0 2.0 0.00 0.00 0.00 90 1020.0
20260906050907 74 44 1.0 2.0 0.00 0.00 0.00 90 1019.9
20260906050407 74 44 1.0 3.0 0.00 0.00 0.00 90 1020.0
20260906044907 74 30 1.0 3.0 0.00 0.00 0.00 90 1019.8
20260906044406 74 24 1.0 3.0 0.00 0.00 0.00 90 1019.7
20260906043906 74 16 1.0 2.0 0.00 0.00 0.00 90 1019.8
20260906043406 74 28 1.0 2.0 0.00 0.00 0.00 90 1019.7
20260906041906 74 32 1.0 2.0 0.00 0.00 0.00 90 1019.6
20260906041406 74 34 1.0 2.0 0.00 0.00 0.00 90 1019.6
20260906040906 74 33 1.0 2.0 0.00 0.00 0.00 90 1019.5
20260906040406 74 35 1.0 2.0 0.00 0.00 0.00 89 1019.5
20260906034407 74 30 1.0 2.0 0.00 0.00 0.00 89 1019.3
20260906033907 74 33 1.0 2.0 0.00 0.00 0.00 90 1019.3
20260906033406 74 36 2.0 3.0 0.00 0.00 0.00 89 1019.3
20260906031906 74 10 1.0 3.0 0.00 0.00 0.00 89 1019.3
20260906031407 74 10 1.0 3.0 0.00 0.00 0.00 89 1019.3
20260906030907 74 355 1.0 3.0 0.00 0.00 0.00 89 1019.3
20260906030406 74 22 1.0 3.0 0.00 0.00 0.00 89 1019.3
20260906024907 74 31 1.0 2.0 0.00 0.00 0.00 90 1019.2
20260906024406 74 4 1.0 3.0 0.00 0.00 0.00 90 1019.1
20260906023906 74 10 1.0 2.0 0.00 0.00 0.00 89 1019.2
20260906023406 74 25 1.0 2.0 0.00 0.00 0.00 89 1019.1
20260906021906 74 37 1.0 2.0 0.00 0.00 0.00 89 1019.2
20260906021406 74 53 1.0 2.0 0.00 0.00 0.00 89 1019.3
20260906020906 74 30 0.0 0.0 0.00 0.00 0.00 89 1019.3
20260906020406 74 30 0.0 2.0 0.00 0.00 0.00 89 1019.3
20260906014406 74 26 2.0 2.0 0.00 0.00 0.00 89 1019.4
20260906013906 74 24 1.0 2.0 0.00 0.00 0.00 89 1019.4
20260906013406 74 22 2.0 3.0 0.00 0.00 0.00 89 1019.4
20260906011906 74 16 1.0 3.0 0.00 0.00 0.00 89 1019.3
20260906004906 74 16 1.0 2.0 0.00 0.00 0.00 88 1019.5
20260906004406 74 31 1.0 2.0 0.00 0.00 0.00 88 1019.4
20260906003907 74 27 1.0 2.0 0.00 0.00 0.00 88 1019.2
20260906003406 74 24 1.0 2.0 0.00 0.00 0.00 88 1019.4
20260906001905 75 33 1.0 2.0 0.00 0.00 0.00 88 1019.3
20260906001405 75 33 1.0 2.0 0.00 0.00 0.00 88 1019.4
20260906000906 75 31 1.0 2.0 0.00 0.00 0.00 88 1019.4
20260906000406 75 31 1.0 2.0 0.00 0.00 0.00 88 1019.4
20260905234906 75 30 1.0 2.0 0.00 0.00 0.00 87 1019.4
20260905234406 75 16 1.0 2.0 0.00 0.00 0.00 87 1019.4
20260905233906 75 13 1.0 2.0 0.00 0.00 0.00 87 1019.3
20260905233405 75 30 1.0 2.0 0.00 0.00 0.00 87 1019.5
20260905231906 75 32 1.0 2.0 0.00 0.00 0.00 86 1019.5
20260905231405 75 25 1.0 2.0 0.00 0.00 0.00 86 1019.6
20260905223906 75 14 1.0 2.0 0.00 0.00 0.00 86 1019.6
20260905223407 75 9 1.0 3.0 0.00 0.00 0.00 86 1019.7
20260905221406 76 1 1.0 3.0 0.00 0.00 0.00 86 1019.6
20260905220905 76 27 0.0 0.0 0.00 0.00 0.00 85 1019.7
20260905220405 76 349 1.0 3.0 0.00 0.00 0.00 85 1019.7
20260905214905 76 11 0.0 2.0 0.00 0.00 0.00 85 1019.6
20260905214406 76 357 1.0 2.0 0.00 0.00 0.00 85 1019.7
20260905213406 76 344 0.0 2.0 0.00 0.00 0.00 85 1019.4
20260905211905 76 353 0.0 3.0 0.00 0.00 0.00 85 1019.4
20260905211405 76 323 0.0 2.0 0.00 0.00 0.00 85 1019.3
20260905210905 76 338 0.0 2.0 0.00 0.00 0.00 85 1019.3
20260905210406 76 325 1.0 3.0 0.00 0.00 0.00 85 1019.2
20260905204406 76 10 0.0 1.0 0.00 0.00 0.00 85 1019.3
20260905203906 76 24 1.0 2.0 0.00 0.00 0.00 84 1019.3
20260905203405 76 42 1.0 2.0 0.00 0.00 0.00 84 1019.1
20260905201905 76 32 1.0 2.0 0.00 0.00 0.00 84 1019.1
20260905201406 76 32 0.0 2.0 0.00 0.00 0.00 84 1019.1
20260905200905 76 32 0.0 1.0 0.00 0.00 0.00 83 1019.0
20260905200406 76 32 1.0 2.0 0.00 0.00 0.00 83 1019.1
20260905194905 77 32 1.0 2.0 0.00 0.00 0.00 83 1019.0
20260905194405 77 28 1.0 2.0 0.00 0.00 0.00 82 1019.1
20260905193406 77 355 1.0 3.0 0.00 0.00 0.00 82 1019.1
20260905191906 77 64 0.0 2.0 0.00 0.00 0.00 81 1019.1
20260905191405 77 65 0.0 0.0 0.00 0.00 0.00 81 1019.1
20260905190907 77 65 0.0 0.0 0.00 0.00 0.00 81 1019.0
20260905184405 78 38 0.0 0.0 0.00 0.00 0.00 80 1018.7
20260905181905 79 71 0.0 1.0 0.00 0.00 0.00 79 1018.3
20260905181406 79 71 0.0 2.0 0.00 0.00 0.00 79 1018.3
20260905180906 79 87 0.0 0.0 0.00 0.00 0.00 79 1018.2
20260905180406 79 41 0.0 1.0 0.00 0.00 0.00 79 1018.2
20260905174905 80 346 1.0 5.0 0.00 0.00 0.00 78 1018.2
20260905173905 80 162 1.0 2.0 0.00 0.00 0.00 78 1018.1
20260905171906 81 150 2.0 3.0 0.00 0.00 0.00 76 1018.1
20260905171405 82 118 2.0 3.0 0.00 0.00 0.00 76 1018.1
20260905170905 82 268 1.0 6.0 0.00 0.00 0.00 76 1018.1
20260905170405 82 112 1.0 6.0 0.00 0.00 0.00 76 1018.1
20260905164905 82 220 2.0 3.0 0.00 0.00 0.00 75 1018.1
20260905164405 82 198 0.0 2.0 0.00 0.00 0.00 76 1018.1
20260905163905 82 250 2.0 3.0 0.00 0.00 0.00 75 1018.0
20260905163405 82 173 0.0 3.0 0.00 0.00 0.00 76 1018.1
20260905161905 82 232 1.0 2.0 0.00 0.00 0.00 75 1018.2
20260905160904 83 187 1.0 3.0 0.00 0.00 0.00 74 1018.2
20260905160405 83 227 1.0 3.0 0.00 0.00 0.00 74 1018.3
20260905154905 84 163 1.0 3.0 0.00 0.00 0.00 73 1018.3
20260905154405 84 157 1.0 3.0 0.00 0.00 0.00 73 1018.3
20260905153905 84 179 2.0 6.0 0.00 0.00 0.00 72 1018.3
20260905151905 84 229 2.0 6.0 0.00 0.00 0.00 73 1018.4
20260905151405 84 233 2.0 5.0 0.00 0.00 0.00 71 1018.4
20260905150904 85 173 1.0 5.0 0.00 0.00 0.00 71 1018.5
20260905150405 85 215 2.0 7.0 0.00 0.00 0.00 70 1018.5
20260905144905 84 188 2.0 6.0 0.00 0.00 0.00 71 1018.5
20260905143904 85 222 1.0 5.0 0.00 0.00 0.00 70 1018.5
20260905143404 84 211 2.0 6.0 0.00 0.00 0.00 70 1018.5
20260905141904 84 232 5.0 6.0 0.00 0.00 0.00 69 1018.6
20260905141413 86 219 3.0 7.0 0.00 0.00 0.00 67 1018.6
20260905140905 86 260 1.0 5.0 0.00 0.00 0.00 68 1018.6
20260905140405 86 171 1.0 3.0 0.00 0.00 0.00 68 1018.5
20260905134912 86 230 2.0 5.0 0.00 0.00 0.00 68 1018.7
20260905133912 86 184 3.0 7.0 0.00 0.00 0.00 68 1018.7
20260905133404 87 179 1.0 5.0 0.00 0.00 0.00 67 1018.7
20260905131404 86 212 2.0 5.0 0.00 0.00 0.00 67 1018.8
20260905130407 86 285 1.0 3.0 0.00 0.00 0.00 68 1018.8
20260905124904 85 183 2.0 5.0 0.00 0.00 0.00 69 1019.0
20260905124404 85 180 2.0 6.0 0.00 0.00 0.00 69 1019.0
20260905123905 86 188 1.0 5.0 0.00 0.00 0.00 69 1019.0
20260905123404 86 187 2.0 6.0 0.00 0.00 0.00 68 1019.2
20260905120905 86 203 1.0 6.0 0.00 0.00 0.00 68 1019.3
20260905120404 87 173 1.0 5.0 0.00 0.00 0.00 69 1019.3
20260905114905 85 193 2.0 5.0 0.00 0.00 0.00 70 1019.3
20260905114405 85 141 1.0 6.0 0.00 0.00 0.00 71 1019.3
20260905111404 85 191 1.0 5.0 0.00 0.00 0.00 70 1019.2
20260905110907 86 162 2.0 5.0 0.00 0.00 0.00 70 1019.3
20260905110404 85 200 1.0 7.0 0.00 0.00 0.00 70 1019.3
20260905104904 86 186 1.0 3.0 0.00 0.00 0.00 69 1019.3
20260905104404 85 115 2.0 3.0 0.00 0.00 0.00 68 1019.3